STARLINK-32301, 61664

Orbit data source: Space-Track

STARLINK-32301, 61664 is a payload satellite owned by SpaceX/Seattle (US) in LEO that was launched on Sat, 26 Oct 2024 UTC via an FALCON 9 launch vehicle from the Air Force Eastern Test Range (AFETR). Payload-class satellites include a variety of spacecraft equipped with specific instruments for various scientific and technological missions. These include communications satellites like Starlink; space stations such as the ISS; scientific satellites like the Hubble; Earth observation satellites from companies like Planet Labs, Umbra, and HawkEye 360; GPS; miniature CubeSats for education and research; and military/defense satellites.

Loading next visibility...
Identifier
61664, 2024-193D
Orbit
LEO
Last TLE update
16 hours ago
Origin
Manufacturer
SpaceX/Seattle
Mission
Operational Commercial Communications
Bus & Motor
STARLINK V2M, Unknown motor
Mass
730 kg wet, ~700 kg dry
Launch date (UTC)
2024-10-26 (8 months ago)
Launch vehicle
FALCON 9
Launch site
Air Force Eastern Test Range (AFETR)
Object type
Payload
Rocket body
Debris
Shape & HBR
Box + 2 Pan, 29 m
Radar Cross Section
36.964 m², Large (>1 m²)

Expand to show TLE details & history

TLE from 16 hours ago
0 STARLINK-32301
1 61664U 24193D   25181.71067272 -.00000172  00000-0  63304-5 0  9993
2 61664  53.1591 181.7031 0001099  88.5302 271.5825 15.30189726 37940
Epoch: 2025-06-30T17:03Z
TLE epoch observation values (Epoch: 2025-06-30T17:03:22.122Z)
Latitude
-0.00002°
Longitude
6.84434°
Altitude
476.125 km
Speed
7.629 km/s
True Right ascension
12h 06m 48s
True Declination
0° 00' 00"
Sunlit
Object was in daylight at epoch
Visualization orbit readout
Latitude
5.30679°
Longitude
7.7725°
Altitude
475.531 km
Speed
7.63 km/s
Apparent Right ascension
10h 37m 24s
Apparent Declination
-18° 22' 32"
Sunlit
Object is in daylight
Visualization observer readout
Local Sidereal Time
20:23:47
Azimuth
297.031° NW
Elevation
-54.088°
Doppler factor
1
Orbital elements
Apogee altitude
476.256 km
Perigee altitude
474.749 km
Semi-major axis
6,853.639 km
Eccentricity
0.00011
Inclination
53.1591°
RAAN
181.7031°
Arg. of periapsis
88.5302°
True anomaly
Unknown
Mean anomaly
271.5825°
Eccentric anomaly
Unknown
Mean motion
3.82526 °/min
Orbital period
94.11 mins
BSTAR
0.0000063304
Loading maneuver chart data...
Loading SW <> Apogee altitude chart data...
Loading historical data...
Loading historical data...
Loading historical data...
Loading historical data...
Loading historical data...
Loading historical data...
Loading historical data...

STARLINK-32301 Visibility forecast

Observer location: undefined°, undefined°

Span
Click to sort rows by Start time (UTC) header in descending order
Start Az.
Max El. time (UTC)
Max El. Az.
Max El.
End time (UTC)
End Az.
6 mins2025-07-01 09:12:37.511Z318.515° NNW2025-07-01 09:15:37.511Z10.692° NNE37.666°2025-07-01 09:18:37.511Z110.181° ESE
5 mins2025-07-02 02:09:37.511Z202.641° SW2025-07-02 02:11:37.511Z126.964° SE38.531°2025-07-02 02:14:37.511Z60.207° ENE
5 mins2025-07-02 03:47:37.511Z289.582° WNW2025-07-02 03:49:37.511Z333.602° NNW22.038°2025-07-02 03:52:37.511Z28.923° NE
|